Theta_e
342 342 343 347 347 344 344 344 343 343 343 343 342 346 348 349 348 349 348 348 347 348 348 349 348 348 347 347 347 347 345 343 343 343 342 341 341 341 341 342 343 344 343 343 347 349 350 350 349 349 348 348 348 349 349 348 348 348 348 347 346 346 347 347 346 345 344 344 345 344 344 344 346 346 346 345 344 343 341 341 340 338 338 340 343
341 342 342 345 347 345 344 344 343 343 343 343 342 346 348 348 348 347 348 348 347 347 349 348 347 346 346 345 345 344 345 344 342 342 341 341 341 341 341 342 342 341 342 344 345 346 348 348 349 348 348 348 348 348 348 347 347 346 346 346 346 346 346 346 345 344 344 344 345 344 344 345 345 345 345 345 345 343 341 341 341 337 336 340 340
342 342 343 345 347 345 345 344 343 343 342 342 343 346 347 347 347 347 347 347 347 348 348 347 346 347 346 345 345 346 343 343 342 341 340 339 339 340 340 340 340 341 341 342 343 344 344 346 347 346 346 345 346 347 347 346 346 345 345 346 345 345 345 344 344 343 343 342 342 342 342 344 343 343 342 345 344 343 341 340 340 339 335 339 338
341 342 342 343 344 345 343 342 342 342 341 341 345 347 348 347 347 347 347 347 347 347 347 347 347 346 345 344 344 345 345 344 343 342 341 340 340 340 339 339 339 339 340 340 341 342 343 343 344 344 343 343 344 346 345 345 345 345 345 345 344 344 345 343 342 342 341 341 340 339 337 336 338 342 343 343 342 341 339 339 339 338 338 337 337
341 342 342 341 340 343 343 343 343 342 341 341 345 348 347 347 347 347 346 347 347 347 347 346 346 345 344 343 343 344 344 344 344 342 339 341 342 342 341 339 340 341 340 340 339 340 340 341 342 342 341 341 344 344 344 344 344 344 344 345 345 344 342 343 342 341 340 340 339 337 334 335 335 340 341 341 340 338 338 336 336 336 336 336 336
341 342 342 340 339 341 344 343 341 340 340 340 341 348 347 346 346 346 346 346 347 347 346 346 346 345 343 341 343 343 342 342 342 343 342 340 338 338 338 341 342 342 341 341 341 340 339 339 339 339 339 340 343 343 343 344 344 344 344 344 344 343 343 342 341 340 339 338 337 334 334 334 336 337 341 340 338 337 335 336 336 335 334 333 334
341 342 341 340 339 341 343 343 341 340 340 340 341 346 346 346 346 346 346 346 347 346 346 346 345 343 342 342 341 339 338 343 344 343 342 341 340 339 341 341 340 340 340 341 340 340 340 340 339 339 339 338 340 342 343 343 343 342 343 343 343 343 342 341 340 339 338 336 333 333 333 334 335 335 340 340 339 337 336 336 336 336 333 332 333
341 342 341 340 339 341 342 343 343 341 340 340 342 345 345 344 345 346 346 346 346 345 344 343 343 342 341 341 340 340 340 340 341 340 340 339 339 338 337 339 340 340 340 341 341 341 340 340 339 339 339 339 338 343 343 343 342 342 343 344 343 342 341 341 340 339 338 334 333 332 332 333 333 333 338 339 339 338 337 336 335 335 332 331 333
340 341 341 340 339 342 343 343 343 342 341 341 341 342 343 343 343 346 347 346 345 344 343 343 343 342 340 338 339 342 341 341 340 340 341 339 339 338 338 338 339 339 339 339 340 340 339 339 339 339 339 338 340 342 342 342 342 342 343 343 341 341 340 339 337 336 334 333 332 330 330 331 331 331 336 337 336 335 335 335 335 332 331 333 333
340 340 340 339 339 340 342 342 343 343 342 342 342 342 341 343 343 346 347 346 344 343 343 343 342 341 341 340 339 339 339 339 341 341 340 341 340 341 341 341 341 339 340 341 341 340 341 339 340 340 339 340 340 341 342 342 342 342 342 342 341 340 339 337 335 333 332 332 332 331 333 335 330 331 334 337 336 334 334 333 335 332 332 331 331
339 340 340 339 338 340 343 343 343 344 343 342 343 342 342 343 342 344 347 346 345 344 343 343 341 340 339 339 338 338 338 342 343 343 343 343 342 339 337 337 338 339 339 340 341 341 341 341 340 340 339 340 340 340 341 342 341 341 340 341 341 340 338 336 333 329 329 329 329 330 333 335 329 330 336 335 335 333 334 334 333 330 330 330 330
338 340 339 338 343 340 342 343 343 342 342 342 342 343 344 345 345 345 346 346 344 343 342 342 340 339 339 339 338 337 338 343 343 343 343 342 340 339 338 338 337 338 338 338 338 338 340 340 340 340 340 340 340 340 341 341 340 340 339 339 340 338 337 335 330 328 327 327 327 327 327 328 329 332 336 335 334 332 331 331 330 331 331 328 327
339 339 339 339 339 340 342 343 342 342 342 342 342 343 345 345 344 343 344 345 343 341 340 340 339 338 337 337 339 339 338 340 341 341 341 341 340 339 338 337 338 338 339 339 338 338 338 340 340 340 339 339 339 340 340 339 339 339 338 338 338 337 334 332 329 327 326 325 325 325 325 325 327 334 334 333 333 332 331 331 330 329 329 328 329
338 339 339 339 339 342 339 340 341 342 343 343 342 342 343 343 343 343 344 344 343 341 340 340 339 338 338 338 338 338 337 338 339 339 341 340 340 338 338 338 339 339 338 339 339 339 339 339 339 339 338 338 339 339 339 338 337 336 337 337 336 335 333 331 330 327 326 326 327 326 326 328 327 332 333 332 332 331 329 328 328 329 328 328 327
338 339 339 339 339 339 340 338 341 341 342 343 343 342 342 342 341 341 342 343 343 341 340 339 338 338 338 340 340 337 336 335 339 341 340 338 338 338 338 338 339 339 339 339 338 337 337 338 339 338 337 337 338 338 337 336 335 336 336 335 334 331 330 329 328 326 326 326 325 325 324 325 332 332 331 331 330 329 328 327 327 327 325 326 328
339 339 339 339 338 338 338 340 337 337 340 341 341 342 342 341 342 341 342 342 342 342 340 339 339 338 339 341 342 341 341 341 341 340 341 340 338 339 338 337 338 337 337 337 337 337 337 337 337 337 336 337 337 337 336 335 335 335 335 334 331 329 326 325 325 325 324 324 323 323 323 325 332 331 331 330 329 328 327 327 327 326 326 327 325
340 339 339 338 338 337 338 338 336 333 334 336 338 339 341 343 343 342 342 341 341 340 340 339 339 341 340 342 342 342 341 341 339 339 341 341 341 338 339 338 338 337 337 336 337 337 336 336 336 337 337 337 337 336 336 335 334 336 334 331 330 328 325 324 325 324 324 324 323 323 323 325 331 329 328 328 326 326 326 326 325 323 323 323 324
339 339 338 338 338 337 338 336 335 335 334 333 333 337 340 342 342 342 342 342 342 342 342 341 340 340 339 339 339 339 339 339 339 339 339 340 339 338 339 338 337 336 335 335 336 336 336 336 336 336 336 336 336 336 335 334 334 335 332 330 328 326 324 324 324 323 323 324 321 322 321 330 332 328 328 327 328 328 325 325 325 325 324 324 324
339 340 339 338 338 338 337 336 335 335 334 334 333 334 334 337 339 340 340 340 341 340 339 337 337 338 337 335 334 332 332 333 334 336 336 336 335 334 338 338 337 336 335 335 335 336 336 336 335 335 335 335 335 335 334 333 333 333 330 329 325 321 321 322 322 321 321 321 319 319 322 331 330 327 327 326 325 325 324 325 325 324 323 323 322
338 339 339 339 339 337 337 337 336 336 335 334 333 332 331 331 335 336 337 338 338 338 336 333 331 331 330 329 327 326 326 326 326 327 331 335 333 331 333 336 336 336 335 335 335 335 335 335 335 335 335 334 334 333 332 332 331 331 329 327 322 319 320 320 321 320 320 320 320 319 328 333 327 327 327 326 326 325 324 324 323 322 323 322 321
337 338 338 339 338 337 337 336 336 337 336 335 334 332 330 328 328 329 331 334 335 334 331 325 323 323 324 322 324 325 324 325 325 324 322 326 325 327 332 336 336 335 335 334 334 335 335 335 335 334 333 332 330 329 328 331 331 330 328 322 318 320 318 322 322 321 319 319 319 320 330 332 331 326 325 326 325 325 323 323 322 322 323 321 321
333 334 337 339 338 337 336 336 336 336 336 337 336 334 331 330 329 328 328 328 327 326 327 328 331 324 322 324 325 325 325 324 325 329 324 325 326 326 330 335 335 335 335 335 334 334 334 334 334 333 333 330 325 317 319 323 325 326 323 318 318 317 317 322 322 321 318 318 318 324 329 330 326 328 327 326 324 324 323 323 323 322 322 320 320
331 330 333 337 338 338 336 335 336 336 336 337 336 333 332 332 330 329 328 326 330 329 329 329 326 326 324 324 325 324 324 325 323 325 325 322 325 325 329 331 333 332 334 335 334 334 334 333 333 332 331 328 319 317 317 315 316 318 317 317 317 317 318 319 321 321 319 318 318 327 331 330 327 327 326 324 325 324 323 323 322 320 320 320 320
330 330 331 335 337 337 337 336 336 336 337 336 335 334 334 333 332 331 329 328 328 329 329 329 327 327 328 326 326 324 325 325 328 328 327 323 323 324 326 327 329 328 330 331 332 333 333 332 331 330 328 321 318 317 319 318 316 317 315 317 317 317 318 318 319 320 320 321 319 326 329 333 326 325 326 324 326 324 322 322 321 321 320 320 319
331 331 330 333 335 337 337 337 337 337 337 336 334 333 334 333 332 331 330 329 328 328 328 329 328 328 327 327 325 324 325 325 324 323 322 322 321 321 323 324 324 322 323 321 322 323 321 319 319 320 316 316 317 318 319 320 319 318 315 317 316 316 316 318 319 320 320 320 318 324 326 329 327 325 325 324 325 324 323 323 321 320 320 320 319
329 330 330 331 333 336 336 337 337 336 336 336 335 333 333 331 331 331 331 330 329 328 327 328 328 329 326 326 325 324 324 324 324 322 322 322 321 320 321 322 320 320 321 322 321 318 317 317 315 315 317 316 316 316 317 316 315 315 315 314 315 316 314 315 318 319 321 319 318 322 326 329 328 327 327 326 324 325 323 323 323 321 320 320 318
328 330 330 331 332 334 335 336 336 336 335 336 335 333 332 331 332 331 330 329 328 327 326 327 329 329 326 325 324 322 321 321 321 321 321 322 321 320 319 320 322 321 322 321 320 320 319 318 317 317 316 316 316 315 316 316 315 316 315 315 315 315 314 314 316 318 320 318 317 320 325 329 329 328 327 326 326 326 324 323 323 322 321 320 321
327 329 329 330 331 333 334 335 336 336 334 335 335 334 333 331 332 329 330 328 328 326 327 327 328 329 328 326 324 322 321 319 320 318 319 322 321 322 321 319 320 321 322 322 321 319 316 318 317 315 316 314 315 317 316 315 314 315 315 314 314 314 313 313 314 315 319 319 318 318 321 325 327 330 330 329 328 327 326 324 323 323 323 322 322
327 328 329 329 330 332 334 334 334 335 335 335 334 334 333 332 330 330 329 326 329 328 328 328 328 328 328 326 324 322 320 322 321 321 319 322 322 322 321 320 321 321 320 317 319 319 317 316 317 317 314 315 314 314 314 314 313 313 313 313 313 313 314 314 313 314 316 318 318 318 321 323 327 329 329 329 330 327 327 326 325 324 324 324 322
327 327 327 328 330 332 333 333 334 335 335 334 333 333 333 331 330 330 329 327 328 329 328 327 328 328 327 326 325 323 322 322 322 321 321 320 320 321 321 320 320 319 318 319 316 317 317 314 314 314 316 314 314 316 314 316 314 313 312 314 313 315 314 314 313 314 312 317 318 317 317 321 324 328 329 328 329 329 329 328 327 326 325 325 324
327 326 327 327 330 331 332 333 334 333 334 334 332 333 333 332 330 330 329 330 329 330 329 329 327 328 327 327 325 325 324 321 322 322 322 320 320 321 320 319 318 319 319 320 316 318 316 318 317 315 315 315 316 315 315 316 314 314 313 312 314 314 315 314 313 313 314 313 316 317 317 317 321 324 328 328 328 328 329 329 330 329 328 327 327
327 327 328 328 329 331 332 332 333 333 333 333 332 332 333 332 331 331 330 330 330 328 327 329 327 327 327 327 326 325 324 322 321 321 322 321 319 320 319 319 319 320 319 320 317 318 318 317 316 316 315 316 316 315 312 315 314 314 312 314 314 314 313 314 312 313 313 313 311 315 316 316 316 320 323 328 329 329 329 329 329 329 329 329 330
328 329 329 328 329 330 331 330 333 332 333 333 332 332 333 332 332 331 331 331 329 330 329 328 329 330 328 327 326 326 325 325 321 322 319 320 319 320 319 320 319 319 318 318 317 315 314 313 313 313 313 312 312 312 311 311 314 313 310 314 314 315 315 315 314 313 313 314 314 311 314 315 315 315 317 321 327 328 329 328 328 328 329 329 329
326 328 329 329 330 331 332 331 331 332 332 333 332 332 332 332 332 332 331 332 330 328 328 329 328 329 331 330 329 328 325 325 323 321 320 319 319 320 320 319 318 317 318 317 317 316 316 313 313 312 315 313 313 312 310 311 311 310 311 310 310 314 315 315 314 314 313 315 315 313 314 312 313 314 314 316 319 323 328 329 328 328 328 329 329
325 327 328 329 329 331 331 332 329 332 330 332 332 332 331 332 332 332 332 332 331 330 328 329 328 330 330 330 330 329 329 327 324 322 320 319 319 319 318 319 320 317 318 316 317 316 314 316 312 313 311 311 312 312 310 312 311 313 313 313 313 313 313 314 314 314 313 314 314 313 315 313 314 313 314 314 311 314 320 327 329 328 328 329 329
326 327 328 329 329 330 330 331 329 331 331 331 332 332 332 331 332 329 332 330 330 331 330 330 331 331 331 330 330 330 330 330 329 326 324 323 323 323 322 320 319 319 317 315 315 317 315 314 312 313 311 311 309 312 310 311 312 312 312 312 312 312 312 312 313 313 314 314 314 314 314 314 315 314 313 314 314 313 314 318 325 327 329 329 329
327 326 328 328 328 329 329 330 329 330 331 331 331 331 332 331 332 333 334 331 330 330 330 331 332 332 331 331 330 330 329 329 330 330 328 327 326 324 322 321 321 321 320 318 317 316 315 315 313 312 312 312 310 310 310 311 311 312 312 311 312 311 311 312 313 313 313 312 313 313 313 313 313 311 313 313 314 314 312 314 318 320 322 327 328
327 327 328 328 327 328 328 329 330 331 332 332 331 331 332 332 331 333 331 332 330 331 330 330 331 331 331 330 329 330 329 329 328 328 328 327 327 326 326 325 324 324 322 320 318 317 316 315 314 312 312 312 310 310 310 310 311 311 311 311 312 310 310 310 310 308 309 311 311 312 313 313 313 313 314 314 314 313 313 314 314 314 314 318 325
327 327 328 328 327 327 327 326 329 329 331 331 330 331 331 332 333 332 331 330 330 331 331 331 330 329 329 329 328 328 326 327 328 328 327 326 325 325 325 326 326 325 323 321 319 317 316 314 313 313 310 312 311 311 311 311 311 311 310 311 311 310 308 307 308 307 308 309 310 310 310 311 311 311 312 312 313 312 312 312 312 312 313 313 320
326 326 326 327 327 326 326 326 328 329 330 331 330 329 329 328 329 327 327 327 329 329 331 331 331 331 330 329 327 327 326 326 328 328 327 325 323 322 322 322 322 322 321 319 317 315 314 313 312 313 313 314 313 313 312 311 309 308 307 308 308 307 307 307 306 307 308 308 308 307 308 308 308 309 310 311 311 310 311 312 311 313 313 313 315
324 325 326 326 327 326 325 325 327 329 328 329 329 329 327 326 325 326 326 326 328 329 330 330 330 331 330 329 328 328 327 325 325 325 325 324 325 322 322 321 320 320 319 319 319 317 316 315 314 313 313 314 314 313 309 308 309 309 310 309 310 310 309 308 308 308 308 308 307 307 307 305 306 306 308 309 309 309 309 310 311 312 312 312 313
323 324 325 326 327 326 326 326 327 328 328 329 329 329 328 328 327 326 325 323 325 327 327 327 328 328 329 329 329 328 327 327 325 327 328 328 326 323 322 323 322 321 320 319 316 315 317 316 316 314 314 315 314 312 310 310 308 307 307 307 307 309 310 309 308 307 307 306 306 305 305 305 305 306 306 306 306 307 308 309 310 310 311 311 312
324 325 325 326 326 326 327 326 327 327 328 327 328 328 327 326 326 321 325 320 322 327 327 326 327 327 327 327 328 328 328 328 328 328 329 328 326 324 324 324 324 322 319 317 316 316 317 316 315 315 314 311 312 311 310 311 309 305 307 305 305 305 307 303 304 305 306 306 306 305 305 304 304 305 305 304 305 305 307 308 308 309 309 309 310
321 322 323 324 326 325 326 326 326 327 327 326 324 327 326 325 325 323 324 325 322 322 325 324 325 325 325 325 325 327 328 328 328 327 327 327 326 326 325 324 324 322 321 319 319 319 318 318 317 315 314 314 310 310 310 310 311 308 306 305 303 301 303 305 301 304 304 307 307 306 304 304 304 304 303 303 304 305 306 306 306 307 308 308 308
319 321 323 324 327 326 326 326 327 327 327 324 324 324 322 321 322 318 318 318 318 320 319 319 322 321 321 320 323 324 326 326 326 326 325 326 326 324 322 323 323 324 324 322 321 321 321 319 317 314 313 313 313 312 310 309 309 311 311 305 303 300 302 305 305 309 305 303 303 304 303 303 304 304 303 303 303 304 304 305 305 306 306 307 307
318 319 321 324 325 325 324 325 325 326 326 323 324 324 323 322 320 319 318 317 318 318 321 322 320 320 321 316 318 323 322 322 323 325 325 323 324 323 323 323 323 322 321 322 322 320 318 317 317 317 315 314 314 314 312 308 309 309 311 313 312 309 308 305 307 304 306 305 304 303 303 303 303 303 302 302 302 303 303 304 305 305 305 305 306
314 313 312 316 317 320 321 322 324 324 325 323 323 323 323 323 322 322 320 320 319 315 312 313 320 316 317 317 318 318 319 321 320 324 324 323 323 323 324 325 325 323 319 321 320 319 319 319 318 317 316 314 313 312 312 312 307 308 309 309 309 309 310 306 304 305 303 305 306 304 304 302 302 302 302 302 303 303 303 303 303 304 304 305 305
304 302 307 311 314 317 319 320 321 321 323 324 322 323 323 322 321 320 318 317 317 316 313 314 313 313 316 316 317 318 318 320 320 320 320 321 321 322 322 323 323 322 319 320 320 319 317 318 316 317 317 316 315 314 313 311 310 308 306 306 306 307 307 306 306 304 302 300 303 309 309 309 307 305 304 303 303 303 303 303 303 303 304 304 304
301 303 303 307 310 313 316 316 318 318 318 321 322 320 322 321 321 319 315 314 315 314 310 309 313 311 313 310 312 311 313 314 315 315 315 316 316 321 323 323 323 323 321 320 319 319 318 317 316 315 316 316 314 314 313 313 312 311 306 303 304 305 306 305 305 304 301 301 302 304 306 305 305 305 305 305 306 305 304 305 305 304 304 304 303
300 301 300 301 303 307 314 315 315 316 317 318 320 318 317 318 317 315 316 311 313 309 309 309 307 308 308 306 308 309 310 312 313 312 314 317 320 321 321 321 321 320 317 319 319 319 318 318 318 317 316 315 315 314 313 314 313 313 311 308 304 303 302 302 303 303 302 303 301 303 305 304 303 308 308 308 307 307 306 306 305 304 304 304 304
300 300 301 301 301 307 310 313 312 312 313 315 316 315 314 315 316 313 314 312 310 311 309 309 306 306 308 307 307 308 308 310 310 309 311 311 313 315 316 318 319 317 316 318 318 318 317 317 316 316 314 314 314 313 311 312 311 311 311 310 308 306 306 305 306 303 302 300 300 303 305 306 306 306 309 309 308 308 307 307 306 306 306 305 304
Wind_Speed
5 6 3 7 10 11 10 11 11 11 11 11 11 14 13 13 12 12 13 14 15 15 16 15 15 17 17 17 18 18 19 18 17 17 17 18 17 18 17 17 17 17 17 16 17 18 19 19 20 20 19 20 20 20 20 20 20 19 19 18 18 18 18 18 19 19 19 19 18 17 17 18 19 19 19 20 19 18 15 17 15 12 9 15 20
8 5 4 4 10 11 11 11 12 12 12 12 11 13 13 12 12 13 14 14 15 15 14 16 17 17 17 17 16 17 18 17 16 17 17 18 17 17 18 18 17 17 17 16 16 17 18 19 19 19 19 18 19 19 19 19 18 18 17 17 17 17 18 18 18 18 18 19 19 19 18 19 20 19 19 20 20 19 16 18 17 10 8 18 19
8 6 4 5 10 11 11 12 12 13 13 12 11 13 12 12 13 14 14 15 14 14 15 16 16 17 17 17 16 18 17 17 17 17 17 17 17 17 18 18 18 18 18 17 16 16 16 18 18 19 19 18 18 18 18 18 17 17 16 15 14 14 15 17 18 19 18 18 17 17 17 20 19 19 19 20 20 19 16 18 17 16 11 19 17
9 5 4 8 11 10 12 12 12 11 11 11 14 13 13 14 14 15 14 14 15 16 15 16 16 17 17 16 16 18 18 18 17 17 17 17 17 17 17 17 17 17 17 17 17 16 16 17 18 19 18 17 17 17 17 17 16 15 15 15 15 16 16 18 18 18 18 16 16 13 8 6 11 18 20 19 19 19 16 17 18 18 18 17 18
9 6 6 6 7 10 12 11 12 11 12 11 15 15 15 15 14 15 15 14 15 15 16 16 17 17 16 15 16 17 17 17 17 17 16 18 18 18 17 16 16 16 17 17 17 17 16 16 17 17 17 17 16 16 16 16 16 15 15 15 15 16 18 18 18 18 17 16 14 11 6 6 5 16 18 19 19 16 15 16 17 17 17 17 17
8 7 6 6 5 8 11 11 12 11 10 11 12 15 15 15 15 14 14 14 15 16 16 16 17 17 15 14 16 17 16 16 16 17 16 15 16 15 15 16 16 17 17 17 17 16 16 16 16 16 16 15 15 16 16 15 15 15 15 15 17 19 18 17 17 17 16 15 14 7 6 5 5 8 18 18 17 15 16 16 16 16 16 16 16
10 6 7 6 5 7 10 12 12 12 11 11 12 14 14 14 15 14 14 13 14 16 16 16 16 15 14 14 15 14 15 17 16 17 16 17 16 15 15 15 16 16 16 17 16 17 17 16 17 17 17 16 15 16 15 15 15 16 16 16 16 16 17 16 15 15 14 9 6 5 6 6 5 4 16 16 16 16 15 15 15 15 15 14 15
7 6 6 6 5 8 10 12 11 12 12 11 12 13 14 13 14 14 14 14 15 16 15 15 15 14 15 14 14 15 16 16 16 15 15 16 16 16 14 15 16 16 16 16 16 17 17 17 17 17 17 17 16 15 15 15 16 17 17 16 15 15 16 14 13 13 13 8 6 5 6 5 6 5 15 15 16 16 15 14 13 13 13 13 6
8 8 7 6 6 11 10 10 12 12 12 11 12 11 13 13 13 15 14 13 15 15 14 14 14 15 14 13 14 16 16 15 15 15 15 15 14 15 15 13 15 16 16 16 16 16 17 17 17 16 17 16 14 14 14 15 16 18 18 18 19 18 15 13 12 11 9 6 7 6 5 5 5 5 13 16 15 15 14 10 10 12 12 11 16
9 8 6 6 6 10 10 11 12 12 12 12 11 10 11 13 12 15 14 14 15 14 14 14 14 15 14 13 14 14 14 13 13 15 15 14 15 15 15 14 15 15 15 15 16 16 16 16 16 16 15 15 13 13 13 15 16 17 18 18 18 17 15 14 13 9 7 6 6 6 6 6 4 5 12 14 14 14 12 11 8 6 6 11 13
10 8 6 6 8 10 12 12 11 10 11 11 10 9 11 12 12 14 14 14 15 15 14 15 15 14 14 14 14 14 14 15 15 15 15 15 15 14 13 13 14 14 14 15 16 16 16 16 16 15 14 13 11 11 13 15 15 16 17 16 15 15 14 12 11 7 6 6 6 5 7 10 4 4 12 14 13 13 9 9 9 9 10 12 12
9 8 7 6 9 11 11 10 11 12 10 10 9 10 12 13 13 13 14 14 15 15 15 14 14 14 13 13 13 13 13 15 14 14 14 15 15 15 14 14 14 14 13 13 14 15 14 14 15 14 14 12 11 11 13 14 14 14 15 15 13 12 12 12 8 6 6 6 6 5 5 4 4 8 14 13 12 12 11 11 10 11 11 10 9
10 8 7 6 6 10 11 11 10 11 10 10 10 11 13 13 13 13 13 14 15 14 14 14 14 14 13 13 14 14 13 13 13 14 14 14 15 14 13 14 13 13 13 13 13 13 14 14 14 14 13 12 11 11 12 13 13 13 14 13 11 10 10 11 7 7 6 5 5 5 4 3 4 11 11 11 11 11 11 10 10 10 10 9 12
10 8 7 6 5 10 10 10 9 9 9 9 10 10 12 13 13 13 14 14 14 14 13 13 13 13 12 13 13 13 11 12 12 13 14 13 14 14 13 13 13 13 13 13 13 13 13 14 14 13 13 12 11 11 11 12 12 12 11 12 11 8 8 8 8 6 5 5 4 5 4 4 4 10 11 11 11 10 9 10 10 10 10 9 9
11 9 7 6 6 5 11 10 9 9 9 9 9 10 12 12 12 12 13 13 13 13 13 13 13 12 12 14 13 11 10 11 13 14 11 12 13 13 13 12 13 13 13 13 12 12 13 13 13 13 12 12 10 10 10 11 11 10 10 10 11 10 8 5 5 5 6 5 4 4 3 3 9 11 11 11 10 9 10 9 9 9 7 10 15
11 9 8 7 6 5 5 8 10 9 9 9 8 8 10 10 11 12 11 11 12 13 13 13 12 12 12 13 12 13 13 13 14 14 13 13 13 13 13 12 12 12 12 12 12 11 12 12 12 11 11 10 10 10 10 10 9 9 9 9 10 10 8 5 5 4 5 5 4 3 3 2 8 10 11 10 9 8 7 9 9 8 7 11 9
9 9 9 8 7 5 5 5 6 9 8 9 8 8 9 9 8 11 10 10 10 12 13 12 12 13 12 12 11 11 11 12 13 13 12 11 10 11 12 13 13 12 11 11 12 12 12 11 11 10 10 9 9 9 9 9 9 8 9 10 10 10 9 6 6 5 5 4 3 3 4 4 8 9 8 8 8 6 9 9 7 7 7 6 8
9 9 8 8 6 5 5 5 5 5 4 6 8 9 8 9 9 9 9 9 9 9 10 11 12 11 10 9 9 9 11 11 12 11 12 11 11 11 12 12 12 11 10 10 11 11 11 11 10 9 9 9 9 9 8 8 8 8 8 9 9 10 9 6 5 5 5 4 3 3 3 4 5 8 8 8 11 11 8 7 6 7 6 7 8
9 8 8 8 6 5 5 5 4 5 5 4 4 7 9 8 9 9 9 9 9 10 11 10 11 9 9 9 10 10 10 11 11 10 11 11 10 10 10 10 11 11 10 10 10 10 10 10 9 8 8 8 8 8 6 6 6 6 7 7 9 9 9 5 5 5 4 4 3 2 1 0 7 5 7 8 7 5 5 5 7 7 6 6 5
8 8 8 8 7 7 5 5 5 5 4 4 4 4 7 9 9 9 9 9 9 10 10 10 10 11 10 10 9 8 8 8 11 8 10 10 10 8 9 8 10 10 10 10 9 9 9 8 8 8 7 7 7 6 4 4 4 4 5 7 8 7 5 3 4 4 4 3 2 1 3 3 5 7 8 6 7 5 6 5 5 5 6 6 4
6 7 8 7 8 7 7 6 5 6 6 5 4 4 5 8 7 9 9 9 9 9 9 9 8 9 9 9 8 5 4 4 6 5 7 6 8 9 9 8 9 9 9 9 9 8 9 8 6 6 6 6 5 4 2 1 2 3 4 5 6 3 3 5 5 4 3 3 2 1 2 3 3 4 4 7 8 7 5 4 3 3 4 4 4
6 6 5 8 8 7 8 7 6 7 6 5 4 4 4 6 5 5 5 6 7 7 6 4 5 4 7 6 4 5 5 3 4 6 5 5 7 10 9 9 8 7 7 9 8 8 7 6 5 5 6 5 3 1 0 1 2 3 4 5 4 3 2 5 5 4 3 3 2 1 2 1 2 8 6 6 4 4 2 3 3 3 4 3 3
4 5 6 7 8 8 8 8 7 7 7 6 5 6 5 4 4 5 5 6 5 5 4 4 3 4 3 3 2 2 3 4 4 5 4 6 6 9 9 8 8 8 7 8 7 7 6 5 4 3 3 4 0 1 2 3 1 5 3 2 3 3 3 3 4 5 4 3 2 3 1 3 5 5 4 3 4 4 3 2 3 1 1 1 2
6 6 6 6 8 8 9 8 8 7 8 6 6 6 5 5 5 5 5 5 5 4 4 4 3 4 3 3 2 2 3 5 6 9 8 5 5 7 8 8 8 8 8 6 6 6 5 3 3 3 1 1 2 2 3 3 4 2 1 3 2 3 3 3 4 5 5 4 3 1 2 3 3 3 5 2 3 4 2 2 0 1 1 1 0
7 5 5 6 8 9 8 7 8 7 9 7 7 6 6 5 5 5 5 5 5 5 5 4 4 4 4 3 2 3 4 5 5 5 5 5 4 3 4 4 4 3 6 3 4 3 3 2 1 0 1 2 1 4 4 4 4 2 3 1 1 1 1 3 4 4 4 4 4 4 1 3 3 3 2 3 5 6 5 4 2 2 1 3 3
6 7 7 6 7 8 8 7 7 7 9 8 7 7 7 6 6 6 6 5 6 5 5 5 5 4 3 3 3 5 5 5 5 5 4 5 4 4 4 4 3 3 3 4 3 3 3 2 2 2 3 1 3 2 4 5 1 1 1 2 1 1 2 1 3 4 5 5 4 7 5 3 6 6 5 6 3 8 6 5 6 4 4 4 2
8 8 7 6 7 7 7 8 8 7 8 8 7 7 6 6 6 6 6 6 5 6 5 5 5 5 4 3 5 5 5 5 5 4 4 4 5 5 5 4 4 4 4 4 3 3 4 4 3 4 3 2 3 3 1 1 1 1 1 1 1 1 2 2 1 4 5 5 6 9 6 5 8 7 6 6 4 7 6 6 5 5 5 5 7
7 9 8 7 7 8 8 8 8 8 7 8 7 7 6 7 7 7 7 7 6 6 6 6 5 7 5 5 4 5 6 5 4 4 5 4 5 5 5 5 4 5 5 5 5 3 3 5 4 4 3 3 4 0 0 1 2 1 2 2 2 2 2 3 1 2 4 6 5 8 8 8 7 5 7 9 9 7 9 7 7 6 6 9 8
10 9 8 8 8 8 8 8 8 8 7 7 7 7 7 7 7 7 6 7 6 6 7 6 5 6 5 5 5 4 4 6 5 5 4 6 5 5 5 6 5 6 5 5 5 5 4 5 5 4 3 4 1 2 2 3 2 3 3 3 3 3 3 3 3 0 4 4 6 7 10 9 9 8 9 10 11 8 10 10 11 9 8 9 6
10 10 9 8 7 8 9 9 8 8 7 7 6 7 7 5 6 7 7 7 7 6 5 6 6 5 6 4 5 5 5 6 6 5 5 5 5 5 5 5 6 6 6 6 5 6 5 3 3 3 4 3 3 4 3 4 4 4 3 4 4 5 4 4 4 4 3 4 5 6 10 10 11 9 10 10 12 11 11 12 11 10 10 11 10
10 10 9 8 8 8 9 9 8 8 6 7 6 7 6 6 5 6 5 6 6 5 4 6 6 6 6 5 5 5 5 4 5 5 5 5 5 5 5 5 5 4 5 6 4 5 4 4 4 4 4 4 5 5 4 5 5 4 4 4 5 4 5 4 4 4 3 4 5 5 7 11 11 11 10 10 13 12 13 13 13 13 13 13 14
11 11 9 8 10 10 11 9 9 9 8 7 6 6 7 6 6 6 6 5 5 5 4 4 5 6 5 5 4 5 4 3 4 3 5 5 5 6 5 4 5 5 5 5 5 5 5 5 4 4 4 4 5 4 3 4 5 5 4 4 4 4 5 4 4 4 4 4 3 5 6 7 11 12 12 12 13 14 14 14 15 16 15 15 15
9 12 10 9 12 10 10 10 9 9 10 9 8 7 7 6 6 6 6 5 5 6 5 4 3 3 5 6 5 4 4 5 4 3 4 5 5 5 5 5 5 5 4 4 4 4 4 4 4 2 3 2 2 4 2 3 5 5 3 5 5 5 5 5 5 5 4 5 5 4 5 6 6 10 12 12 13 14 15 16 15 16 17 16 16
8 8 10 11 10 8 8 7 8 10 10 9 8 7 7 6 6 6 6 6 6 6 6 6 5 3 3 5 5 5 5 4 4 3 3 4 4 4 5 5 5 4 4 4 5 4 5 4 4 2 4 4 4 4 2 4 4 4 4 4 3 6 5 6 6 6 5 5 6 5 5 5 6 6 7 11 13 13 14 16 17 17 17 17 18
8 8 11 11 10 10 9 7 8 9 9 9 9 8 6 7 7 6 6 6 6 6 6 4 5 6 3 3 4 5 5 5 3 1 1 2 3 5 4 6 5 4 5 5 5 4 4 5 4 4 3 4 4 4 3 5 5 6 6 4 6 5 4 6 5 6 6 6 6 5 6 5 6 6 6 7 9 14 14 15 18 19 19 19 19
9 10 10 10 10 10 10 9 8 9 9 9 8 8 7 6 6 6 6 5 6 6 6 6 5 5 6 4 3 4 4 5 4 2 1 1 2 3 4 4 4 4 4 3 3 5 5 4 3 4 4 5 3 5 3 6 6 7 6 6 6 6 6 6 6 6 6 6 7 6 6 6 6 6 6 6 7 9 15 15 15 17 18 21 20
9 9 11 10 10 11 12 11 11 10 9 8 7 6 7 6 6 6 6 5 5 5 5 6 6 6 5 6 6 5 3 3 5 4 2 3 3 3 3 3 3 4 5 5 5 5 4 4 4 4 4 5 4 5 5 5 6 7 6 6 6 6 6 7 7 6 5 6 7 7 6 7 7 7 7 7 7 7 11 15 17 18 18 19 22
10 10 11 12 11 11 11 11 10 9 9 9 8 7 7 6 5 5 5 6 5 5 5 5 6 6 6 6 5 7 8 7 6 5 6 6 4 4 4 4 3 3 4 4 6 5 4 5 5 4 5 5 5 5 6 6 6 6 6 7 7 6 6 6 6 5 6 7 7 7 8 7 7 7 7 7 7 7 7 10 15 17 18 18 19
9 11 9 10 9 9 9 9 10 9 9 8 7 7 6 5 4 5 5 6 6 6 6 6 6 5 6 6 7 6 5 5 6 7 7 7 7 5 4 4 4 4 4 5 5 5 4 4 5 5 3 6 6 5 6 5 5 5 6 7 6 5 5 4 5 5 6 6 7 8 5 7 7 7 7 8 8 7 7 7 7 7 10 17 18
8 9 9 8 9 8 8 8 10 10 8 8 7 7 6 6 7 5 5 6 6 6 6 7 6 7 6 6 6 6 6 6 6 6 6 6 6 6 6 4 5 5 6 5 5 5 6 6 5 6 5 4 4 5 4 4 4 4 5 6 5 5 5 5 5 6 6 7 8 7 7 7 6 7 7 7 7 6 7 8 8 9 8 11 16
7 8 9 9 10 10 10 11 9 10 9 9 8 8 8 7 5 7 7 7 7 7 7 7 7 7 7 7 7 7 6 6 6 5 6 6 6 6 5 6 6 6 6 7 7 7 6 7 7 6 7 6 4 4 2 1 2 5 5 6 7 6 8 8 9 9 10 9 7 8 8 7 7 8 8 7 7 7 7 8 9 9 9 8 10
8 9 11 11 10 9 11 10 9 10 11 11 10 9 9 9 9 10 7 6 7 7 8 6 7 7 8 8 8 7 7 7 7 7 7 7 7 6 6 8 8 7 7 6 4 4 4 3 3 3 2 5 4 2 3 2 3 5 5 5 5 6 9 9 9 9 9 8 8 8 8 8 9 9 7 7 7 7 8 9 9 9 9 9 9
12 13 12 10 10 10 10 10 9 10 10 10 10 10 8 7 8 5 8 5 5 6 6 7 7 7 8 8 8 7 7 7 7 8 8 7 7 6 7 6 6 5 4 3 3 3 4 4 3 4 4 2 2 1 4 6 6 2 1 3 6 5 2 2 5 8 8 9 8 8 9 7 10 8 7 6 7 8 8 9 9 9 9 9 9
9 8 8 11 10 10 10 10 11 10 10 10 10 9 9 7 6 6 6 7 6 5 6 6 7 7 7 6 6 7 7 8 8 8 8 7 7 7 6 6 6 4 5 4 4 5 4 5 6 6 3 5 3 4 5 6 5 2 5 4 3 0 10 4 4 5 6 10 8 8 6 7 8 7 6 8 9 8 8 8 9 9 10 9 9
10 11 11 11 10 12 12 13 12 11 10 9 10 8 7 6 6 3 3 2 1 4 5 6 7 6 5 5 6 5 6 7 6 7 7 8 7 6 5 5 5 5 6 5 5 8 9 8 6 5 5 6 7 5 2 4 6 5 6 3 4 1 5 5 4 7 5 4 5 7 7 7 8 8 7 8 7 7 8 8 9 9 9 9 9
10 10 10 11 10 10 9 9 9 9 9 9 10 9 9 9 8 8 7 6 6 6 9 9 7 6 7 3 3 5 4 4 4 4 5 4 5 5 4 4 5 4 4 6 8 7 4 4 5 5 6 6 7 6 4 3 8 7 7 7 6 7 8 4 5 8 0 4 6 5 7 7 7 7 7 8 8 9 8 9 9 10 9 9 9
10 6 5 6 6 7 7 8 9 9 9 8 9 9 9 9 11 10 9 10 10 5 2 3 6 4 3 4 3 2 3 4 4 5 5 5 5 4 5 6 6 5 6 6 5 4 4 5 6 6 7 5 4 7 9 7 1 4 6 9 9 9 8 6 7 6 11 2 3 3 5 5 7 7 7 8 9 8 7 8 10 11 10 9 9
5 3 5 5 7 8 8 8 7 8 8 9 9 10 11 10 10 9 8 8 8 7 5 4 3 3 3 2 1 0 0 1 3 2 2 2 3 3 3 4 4 4 3 3 4 5 5 5 3 4 5 7 8 9 8 3 5 3 5 7 8 8 7 7 8 9 10 13 11 8 7 9 7 8 7 8 8 9 9 9 10 10 9 10 9
5 6 5 5 5 6 7 6 8 7 7 9 10 9 9 10 10 8 8 5 6 6 4 2 4 2 4 3 4 3 4 5 4 3 3 3 3 1 1 1 1 2 1 2 2 3 3 3 3 5 6 5 4 5 4 7 5 7 4 7 6 7 6 6 7 4 6 9 14 8 13 4 5 5 7 7 8 8 9 11 11 10 10 10 8
4 5 4 4 4 5 7 8 7 6 7 7 9 7 7 8 8 7 7 5 5 3 5 5 4 4 5 4 4 5 5 6 5 4 4 4 5 5 5 4 3 3 2 2 2 2 2 2 3 4 3 4 4 6 7 6 8 7 4 2 2 3 3 4 5 6 6 9 13 15 11 13 15 11 5 7 8 10 9 10 11 9 9 9 8
2 4 5 5 4 5 6 7 6 5 6 7 7 7 6 6 7 6 7 6 5 6 6 5 4 4 5 3 3 2 2 2 2 2 2 2 3 3 3 2 1 2 3 3 3 3 3 2 3 3 3 3 4 4 5 5 4 4 5 4 5 5 7 7 7 6 8 6 8 12 11 9 11 15 11 7 8 9 8 10 9 9 9 9 8
Wind_Direction
131 127 133 101 97 96 94 90 89 86 84 84 82 79 76 74 77 82 86 85 84 84 88 95 92 83 81 79 78 78 77 73 71 72 74 74 72 69 68 68 66 67 68 70 66 66 66 67 66 65 66 68 70 69 64 65 66 67 68 70 72 75 73 69 65 63 63 64 67 72 75 76 78 80 82 80 75 69 66 66 63 60 60 61 61
139 130 122 112 103 98 94 93 94 93 88 84 83 79 79 83 88 89 87 86 90 95 94 85 84 84 82 81 83 83 81 74 73 72 70 72 73 74 73 72 72 72 71 69 70 68 67 67 67 66 68 69 67 63 63 65 65 65 68 72 75 76 74 74 75 70 66 65 63 62 68 76 78 78 79 81 77 74 71 70 66 60 60 64 60
124 125 127 111 102 100 93 91 93 94 93 93 90 83 85 85 88 91 91 96 97 95 90 91 89 85 85 84 83 82 80 79 79 77 78 79 76 74 75 75 71 70 71 73 74 73 72 72 72 70 68 72 70 65 65 65 64 64 65 65 68 71 73 72 73 72 67 63 62 62 61 67 75 80 81 79 79 76 73 74 74 71 67 67 65
123 128 120 108 105 103 102 99 95 93 93 99 97 90 89 89 90 91 90 93 99 100 100 94 91 88 85 85 84 83 82 81 81 80 77 79 78 77 76 75 75 75 75 76 76 75 75 76 74 73 72 75 76 68 66 64 61 60 60 60 63 68 70 80 77 73 70 66 64 64 60 56 68 79 79 79 77 72 69 68 69 70 69 67 68
125 130 120 107 110 109 108 106 101 93 91 96 99 94 87 87 91 96 99 99 97 96 93 89 87 85 87 86 83 82 84 85 81 82 84 77 76 78 78 81 78 75 75 74 77 79 81 79 78 77 77 77 74 71 67 62 58 55 51 49 55 73 77 73 74 74 71 66 62 64 52 49 61 76 79 77 75 72 72 73 72 72 72 72 71
133 131 117 114 113 109 109 108 104 101 97 101 109 100 90 89 93 97 97 94 96 95 91 89 89 89 88 83 86 86 86 86 86 86 79 75 74 77 83 81 78 76 73 75 78 77 78 81 81 81 81 76 74 70 66 60 56 50 47 50 66 80 81 80 78 76 73 69 66 57 53 40 43 70 78 80 78 77 77 76 78 78 75 73 74
131 126 118 116 114 116 113 109 107 104 101 101 97 86 89 93 96 96 96 96 96 91 92 90 88 89 86 85 84 87 89 89 88 87 88 88 86 78 70 77 79 81 81 81 81 82 81 80 80 81 82 82 81 71 61 58 53 49 46 48 63 80 84 82 82 81 78 74 62 54 53 51 51 62 76 79 80 81 79 78 75 74 73 76 83
120 120 119 116 116 116 114 108 105 106 107 105 102 90 92 88 94 98 100 99 93 92 92 93 92 91 89 85 91 95 90 84 82 84 86 82 81 82 80 81 82 79 82 85 82 82 82 81 81 82 84 85 86 68 59 56 54 49 44 44 60 70 78 79 82 83 80 76 72 61 58 53 51 56 72 71 70 74 74 68 67 75 77 82 74
123 122 120 120 119 117 114 116 110 108 111 107 101 100 97 91 95 101 103 101 95 93 93 93 92 91 90 93 94 91 89 90 88 86 81 83 82 82 85 81 82 85 81 81 83 85 83 82 82 82 83 84 80 60 57 57 56 50 48 54 67 73 69 68 67 72 79 75 72 65 60 57 61 62 74 74 72 69 63 55 64 75 84 78 75
123 122 122 121 123 124 123 119 116 112 108 101 95 90 97 96 99 106 108 103 96 92 91 92 94 93 94 94 93 95 97 97 96 89 88 88 86 83 78 77 75 80 83 86 85 81 80 81 80 80 80 82 76 57 56 57 55 52 53 60 68 70 69 67 66 59 69 77 74 70 67 65 59 75 78 79 76 70 63 71 81 75 64 69 78
122 124 124 123 129 128 127 124 121 117 114 110 103 100 110 107 106 112 110 102 98 96 95 95 96 97 97 97 93 93 93 90 87 88 86 87 86 82 80 81 82 77 79 82 83 84 82 79 79 78 80 80 69 59 56 56 53 50 55 61 68 74 74 70 67 68 70 72 67 58 70 68 62 67 85 85 82 79 68 72 80 83 75 72 73
124 127 128 131 132 131 127 125 126 124 123 118 109 110 112 105 102 104 106 102 98 97 96 98 100 100 102 101 101 99 93 89 91 91 91 89 86 86 85 84 82 84 79 76 78 81 83 81 77 77 78 79 68 56 55 56 52 49 51 55 63 74 75 74 76 72 67 67 71 74 66 55 63 78 76 74 75 82 85 82 77 73 76 78 83
129 131 132 131 130 132 128 127 125 127 128 123 109 103 110 110 107 107 107 106 101 98 98 100 100 103 106 102 95 95 96 99 101 100 99 91 88 88 87 86 86 83 81 80 82 83 82 79 77 78 79 76 67 58 53 53 51 48 47 49 52 59 76 76 77 76 73 67 64 64 65 58 65 74 71 69 72 71 70 77 80 80 80 79 70
131 133 131 128 130 133 127 126 128 129 128 121 109 107 111 111 108 108 110 109 104 103 102 103 106 108 109 106 104 104 101 98 95 95 93 94 91 89 88 89 84 82 83 84 83 84 82 83 81 81 83 84 75 66 58 55 53 49 44 44 50 67 77 80 83 81 73 68 62 58 58 59 62 70 71 71 69 73 77 71 66 65 66 67 75
134 134 130 127 130 133 132 131 127 125 125 120 114 112 106 103 109 114 115 114 113 107 104 104 109 112 106 87 86 96 101 101 85 69 69 97 97 92 91 88 87 86 84 82 80 82 84 82 81 81 84 86 75 68 61 56 51 44 42 42 45 49 68 83 83 86 84 75 69 64 60 72 81 79 79 78 79 77 75 73 74 79 82 71 70
133 132 129 129 131 134 131 130 126 127 124 120 118 113 108 107 115 118 116 114 113 112 108 106 109 113 103 86 85 94 96 90 81 74 70 80 96 98 97 94 93 91 91 93 93 90 85 85 85 84 84 78 72 67 60 55 49 40 35 37 37 43 48 86 90 85 85 79 68 61 40 47 82 79 76 72 74 72 67 71 68 56 61 70 71
128 131 132 134 136 135 133 131 131 125 119 117 116 111 111 102 102 119 115 114 114 112 111 110 105 100 95 93 91 90 91 90 88 83 75 79 93 108 104 94 89 88 89 93 91 90 89 89 87 85 81 77 73 67 60 49 37 26 26 24 24 25 34 77 89 88 86 79 71 61 58 56 72 74 73 81 94 81 60 65 80 94 82 74 79
131 135 137 139 139 139 134 131 126 118 109 114 117 117 112 109 108 110 118 113 109 109 112 106 101 100 99 95 96 92 91 86 83 83 83 78 78 84 93 101 97 94 94 92 94 94 95 92 88 86 83 76 73 67 58 46 31 18 18 19 12 13 22 58 93 97 99 89 82 79 81 100 79 81 76 64 57 62 79 89 85 63 71 67 71
137 143 140 144 147 144 139 140 136 128 126 124 120 119 116 114 111 110 109 109 107 108 108 110 110 105 100 100 102 97 93 89 87 87 91 91 89 88 95 101 104 102 102 102 103 100 95 92 91 90 83 81 77 69 56 43 25 16 11 10 8 1 22 59 99 102 95 95 92 85 113 170 92 87 92 65 69 82 77 55 69 103 101 81 74
144 148 149 155 153 151 151 149 146 144 138 130 125 125 122 118 112 110 110 113 115 114 114 112 115 114 115 113 109 102 97 96 93 85 88 94 100 103 103 104 108 110 110 110 104 106 101 96 98 96 92 88 81 72 53 32 20 9 359 12 357 6 30 85 97 100 105 109 110 94 41 54 118 102 89 129 113 83 74 66 78 62 69 90 98
137 160 156 160 154 156 158 158 159 156 147 138 133 126 124 115 107 109 111 116 121 120 115 113 114 123 125 128 123 118 116 108 99 98 88 96 107 107 106 105 111 110 111 111 113 105 102 101 103 113 120 111 108 113 117 36 352 351 352 9 352 21 54 93 103 110 112 113 88 24 54 8 116 98 127 73 63 68 89 114 100 96 107 97 77
151 158 182 159 155 160 165 168 164 166 154 147 145 136 140 126 123 123 117 117 119 122 125 131 133 142 147 150 145 140 131 122 113 108 107 106 110 116 113 112 109 113 115 115 115 112 108 111 121 135 129 118 95 48 25 281 298 288 351 5 358 350 86 113 112 120 121 117 106 97 67 332 63 112 79 78 100 96 65 18 82 127 109 101 125
173 163 177 163 162 162 167 173 178 168 157 154 151 151 151 143 145 139 136 137 142 137 140 141 153 160 171 169 133 99 150 135 132 129 124 122 124 123 121 119 118 114 118 120 121 123 123 122 125 138 139 123 39 334 321 300 288 305 328 350 323 289 109 116 117 136 145 154 148 126 109 287 140 123 127 161 132 133 104 74 65 54 144 173 294
177 182 172 167 159 167 171 175 180 162 154 155 153 157 158 161 161 155 148 151 153 153 154 158 170 178 175 188 155 136 152 135 144 130 122 119 125 125 128 128 125 122 118 113 119 124 131 143 158 159 220 155 246 264 272 286 298 303 343 300 284 289 101 153 146 144 162 167 157 17 13 311 234 184 153 176 101 140 156 138 84 115 154 157 230
175 178 168 172 167 169 169 169 172 154 148 154 155 168 168 164 168 162 162 161 164 166 167 172 184 192 178 197 176 137 150 137 141 138 133 136 135 136 138 142 141 134 133 139 146 148 124 165 278 260 268 217 181 255 232 240 269 312 282 284 268 336 20 143 174 153 170 171 171 152 238 275 226 206 183 212 172 175 165 182 167 199 176 205 195
166 170 190 177 176 169 164 165 166 156 151 156 164 171 168 166 172 169 165 174 173 173 178 179 190 201 171 189 148 148 150 142 145 150 151 150 153 166 172 166 161 172 167 159 179 158 170 194 197 214 241 219 239 244 197 184 171 147 306 192 63 12 336 95 173 172 175 180 181 177 203 227 221 213 227 219 205 176 193 187 193 207 213 214 210
176 183 180 183 176 173 163 159 167 161 156 162 161 165 174 176 174 168 167 183 180 169 183 187 184 191 182 164 145 155 150 152 160 168 165 166 176 180 186 184 183 189 194 163 199 193 189 187 202 219 232 257 253 237 135 142 110 353 324 316 332 336 337 345 215 197 180 185 192 188 200 213 220 222 236 248 205 192 208 219 220 213 225 237 219
173 181 180 178 178 177 167 162 166 163 163 164 161 174 178 176 176 178 173 178 175 179 181 189 183 179 190 162 167 168 156 161 180 179 179 174 195 195 192 188 197 209 197 182 188 214 203 188 204 221 209 225 220 236 274 336 290 239 293 299 304 284 296 287 271 205 202 191 193 202 198 210 222 240 233 239 248 200 208 216 234 244 224 216 235
180 182 181 176 183 177 168 166 163 164 166 164 161 178 179 163 175 174 177 171 183 183 181 178 178 184 186 178 157 181 156 168 183 195 167 185 198 195 195 197 191 207 184 206 184 201 208 178 197 217 222 218 225 252 247 258 273 264 228 258 248 256 273 287 286 191 200 206 201 212 208 207 215 222 235 247 261 227 233 228 227 242 243 245 261
182 180 177 183 180 173 174 173 169 168 168 158 165 169 176 161 168 170 167 158 177 189 177 159 179 174 190 185 184 164 184 173 186 202 173 188 198 197 194 194 190 191 183 194 194 176 194 197 204 219 202 223 230 242 229 238 247 241 224 237 247 232 232 251 271 261 188 205 216 220 222 215 214 217 227 240 252 254 243 241 247 247 237 249 240
175 179 180 181 178 168 176 173 171 170 165 170 164 175 173 171 173 173 163 166 156 165 181 175 156 180 183 192 186 179 167 162 187 189 193 190 192 193 195 186 192 197 184 202 182 186 187 191 202 210 213 218 231 232 212 229 238 248 242 224 230 228 240 244 265 273 261 205 210 219 226 226 222 221 221 228 237 241 248 249 249 244 245 243 245
178 182 179 177 176 174 173 175 172 171 169 177 169 174 179 174 176 167 174 185 170 154 166 175 194 166 185 187 193 189 185 169 164 202 192 190 190 193 197 179 204 209 191 196 191 195 188 204 209 212 212 205 229 240 223 213 232 232 237 240 239 226 234 242 246 259 263 268 207 215 219 229 234 228 225 224 227 234 244 255 253 254 254 246 246
188 179 177 170 177 179 173 178 173 171 173 177 179 177 177 172 172 176 177 180 189 180 188 179 179 205 162 181 190 196 197 193 178 175 207 194 185 186 197 202 202 206 200 196 189 197 200 198 229 222 211 193 233 262 280 251 243 244 232 248 244 242 234 232 245 245 254 254 253 217 212 219 228 241 238 231 231 232 237 242 249 255 257 254 256
184 187 175 176 177 180 177 171 175 174 175 174 175 175 180 176 174 179 178 177 182 184 199 191 180 176 196 162 177 185 194 205 191 191 180 184 185 188 196 210 213 207 197 189 193 192 204 197 221 191 224 222 239 254 289 285 269 272 256 247 242 241 233 237 237 240 242 247 248 242 225 216 221 228 237 245 242 239 236 237 242 245 250 254 258
170 183 185 182 176 178 178 178 172 175 170 171 174 177 178 175 177 179 181 178 179 185 190 203 195 190 170 183 176 171 180 174 163 160 181 221 202 189 199 216 210 198 190 200 190 198 196 211 195 205 246 249 247 261 259 260 267 269 260 258 253 247 238 236 238 242 240 242 243 247 235 219 222 223 227 231 245 246 244 242 239 241 245 250 254
172 180 185 179 179 179 180 178 169 171 175 168 171 172 173 177 178 181 175 176 181 183 188 190 197 203 189 181 179 183 195 180 163 152 184 186 235 249 213 203 206 186 192 193 181 194 209 218 220 196 225 253 256 265 244 251 253 259 259 253 255 248 237 237 238 241 242 242 243 242 238 235 224 223 226 228 231 237 238 241 244 244 245 247 249
182 170 178 179 177 179 178 178 176 174 177 173 168 171 171 173 181 184 184 172 177 188 190 188 192 195 205 191 183 186 198 208 201 202 211 230 233 215 244 212 200 200 199 199 195 203 196 212 238 223 206 234 222 246 253 241 248 247 248 248 245 242 238 233 237 238 246 243 246 243 243 236 234 232 224 226 230 236 238 236 240 243 245 246 248
188 178 175 176 175 176 180 180 180 174 176 178 176 174 179 172 176 184 183 186 186 185 187 187 198 201 192 202 201 201 201 198 202 204 235 250 229 224 228 221 197 203 220 205 211 197 199 197 231 235 214 218 233 231 244 243 242 251 252 247 248 235 235 234 235 240 234 245 245 244 238 238 237 234 234 233 230 230 234 240 241 243 243 244 245
189 185 175 177 167 173 174 176 175 173 174 176 178 173 172 177 178 178 187 193 192 190 186 193 198 201 204 200 193 196 209 215 206 200 207 220 237 233 224 229 233 229 212 213 212 205 210 210 215 241 230 220 222 227 234 237 253 257 259 256 258 255 259 251 243 239 241 244 251 254 256 249 244 242 240 238 239 238 236 237 243 241 244 243 244
186 184 179 174 173 166 170 170 179 173 167 172 169 175 177 186 197 204 205 197 193 191 197 196 196 201 203 202 203 200 199 203 203 200 199 208 222 233 235 236 237 234 232 222 221 206 210 214 222 220 242 254 241 251 249 258 279 294 288 291 277 281 289 288 284 267 261 250 248 250 249 253 249 251 247 245 247 244 243 246 244 246 245 247 245
185 183 182 183 181 174 167 178 180 172 169 173 178 178 185 191 200 204 208 201 191 190 196 198 199 201 200 201 203 206 204 202 207 201 205 209 212 219 222 229 223 217 218 222 216 217 213 207 213 201 210 232 249 224 251 137 292 292 275 272 284 268 255 256 255 252 247 250 251 251 253 257 253 252 250 251 249 246 243 245 247 249 249 248 252
196 185 189 192 188 176 179 179 173 179 179 179 180 184 189 192 190 199 192 186 190 192 199 200 199 200 201 202 205 204 201 201 202 203 211 210 213 210 212 220 213 211 210 210 211 215 221 232 223 239 220 218 245 195 213 147 256 237 282 296 290 278 252 238 245 250 250 254 252 250 253 246 251 250 253 250 251 245 246 244 246 246 247 247 249
187 188 191 186 189 185 188 180 180 179 185 179 176 189 188 188 185 185 185 193 210 198 191 195 196 198 200 203 203 201 197 201 200 205 209 212 210 213 219 216 216 214 225 225 195 201 191 195 191 206 245 244 245 222 205 188 245 177 201 326 284 309 304 301 251 250 248 252 247 246 243 243 249 248 251 255 249 248 246 246 247 245 245 245 246
182 191 185 187 189 190 189 185 186 182 182 184 181 184 181 179 184 171 187 185 190 195 201 201 202 204 214 201 194 188 191 196 196 198 203 207 210 212 210 206 207 194 199 219 222 229 214 216 211 216 203 261 234 256 205 211 211 160 297 213 265 24 305 272 278 273 227 236 235 244 238 243 249 255 248 245 247 245 249 248 248 247 246 245 243
187 188 187 187 189 190 189 187 187 188 184 179 178 163 155 165 174 163 154 140 33 169 181 215 206 204 204 196 203 183 181 186 190 195 201 210 213 211 201 208 208 209 204 215 226 229 224 218 205 201 200 219 252 250 249 199 225 220 239 308 309 269 231 282 326 277 230 257 259 239 243 238 242 244 239 247 251 251 251 252 248 246 246 243 244
194 196 193 192 188 189 184 183 186 187 184 178 174 166 171 169 167 167 177 189 193 181 196 198 199 199 201 188 167 178 185 190 187 199 206 216 218 211 213 217 227 224 205 216 227 231 226 210 204 205 219 216 232 249 263 205 216 219 226 233 235 274 301 281 344 298 328 209 243 224 234 231 238 249 238 249 245 245 237 249 248 250 245 242 242
208 194 191 197 196 188 187 180 181 185 183 177 173 168 174 180 184 187 185 189 187 212 198 183 183 201 158 156 169 158 153 163 195 197 203 203 208 214 218 221 221 220 222 226 232 215 206 208 213 209 218 210 200 238 238 241 129 243 225 233 245 250 256 293 275 306 300 263 245 271 265 235 233 239 242 242 246 249 248 245 251 250 248 244 242
193 173 196 197 191 190 186 186 178 177 184 178 176 177 178 184 186 188 181 184 184 182 181 185 185 145 148 189 220 309 40 205 199 191 195 210 225 242 247 240 231 227 195 201 210 213 213 231 225 225 222 215 214 222 243 217 211 251 210 232 242 254 263 261 259 265 286 297 292 281 247 257 246 243 241 248 245 244 248 247 250 251 250 246 240
188 193 196 194 191 186 183 180 181 175 181 180 179 183 179 181 182 177 178 184 164 175 168 121 138 137 113 46 72 59 61 59 59 80 92 112 125 144 216 257 293 333 335 329 325 316 284 277 250 220 226 239 223 230 233 236 215 240 225 240 232 240 248 243 265 256 261 292 289 285 297 262 248 255 262 237 248 242 243 249 249 248 249 248 241
202 189 181 160 164 166 174 176 184 179 173 176 177 175 170 161 165 170 168 169 156 125 96 92 90 96 97 74 56 49 35 43 34 47 60 62 66 53 44 35 32 49 53 40 18 7 327 281 264 256 248 248 234 230 229 236 229 252 259 277 224 282 281 275 244 244 251 232 265 289 281 291 294 287 254 262 235 249 243 250 253 250 250 252 244
129 147 161 159 151 153 161 169 178 166 162 165 166 167 157 156 155 156 158 160 159 138 106 91 89 77 91 61 63 58 53 45 45 22 60 64 74 92 89 77 51 39 21 21 18 4 342 335 333 336 300 251 247 242 250 265 293 285 254 229 236 227 243 256 259 224 231 264 284 279 282 276 279 294 285 248 254 242 238 248 251 254 248 253 246